Вернуться в каталог

ONEWEB-0497

АктивенСвязьPO
NORAD 54116·PAYLOAD·🇬🇧 United Kingdom

Запущен Oct 22, 2022 с Satish Dhawan Space Centre

Loading…

Ближайшие Пролёты (ближайшие 24 часа)

TLE

СвежийSource: CelesTrak SupGP

Эпоха: Sep 15, 2026, 03:52 UTC

1 54116C 22138D   26258.16128889 -.00002447  00000+0 -61197-2 0  2581
2 54116  87.9118 287.0430 0001970  91.1719 346.7097 13.19731445    17

Отслеживайте ONEWEB-0497 в реальном времени с AllMySat

Download on the App Store